Regional Weather Roundup
Issued by NWS

Home | Current Version | Previous Version | Text Only | Print | Product List | Glossary Off
Versions: 1 2 3 4 5 6 7 8 9 10 11 12 13 14 15 16 17 18 19 20 21 22 23 24 25 26 27 28 29 30 31 32 33 34 35 36 37 38 39 40 41 42 43 44 45 46 47 48 49 50

000
ASUS45 KTFX 011519
RWRMT
MONTANA HOURLY WEATHER ROUNDUP
NATIONAL WEATHER SERVICE GREAT FALLS MT
919 AM MDT WED APR 1 2015

NOTE: "FAIR" INDICATES FEW OR NO CLOUDS BELOW 12000 FEET WITH NO
SIGNIFICANT WEATHER AND/OR OBSTRUCTIONS TO VISIBILITY.

* THESE STATIONS ARE NOT UNDER NWS QUALITY CONTROL. THEY DO NOT
   REPORT WEATHER SUCH AS PRECIPITATION OR FOG.

MTZ001>007-043-011600-
WEST OF THE DIVIDE
CITY           SKY/WX    TMP DP  RH WIND       PRES   REMARKS
KALISPELL      CLOUDY    37  21  52 S10       29.97R WCI  30
MISSOULA       CLOUDY    36  23  59 NW7       30.06R WCI  30
BUTTE          CLOUDY    30  16  56 W7        29.98R WCI  23
MULLAN PASS    CLOUDY    21  19  92 W8        29.97R WCI  11
* ESSEX        N/A       34  21  59 NE3        N/A
* EUREKA APT   PTSUNNY   43  25  49 S6        29.97R
* HAMILTON APT PTCLDY    34  27  76 S12       30.05R WCI  25
* LIBBY APT    PTCLDY    41  21  45 E7        30.01S
* LINCOLN      N/A       32  16  52 SW5G20     N/A   WCI  27
* LOOKOUT PASS N/A       28  23  81 N4         N/A
* POLSON       N/A       32  22  67 S3         N/A
* RONAN APT    PTSUNNY   37  19  48 S8         N/A   WCI  31
* SEELEY LAKE  N/A       33  16  50 NW7G15     N/A   WCI  27
* THOMP F APT  PTCLDY    27  14  58 N7G19      N/A   WCI  19
$$

MTZ008-052>055-011600-
SOUTHWEST MONTANA
CITY           SKY/WX    TMP DP  RH WIND       PRES   REMARKS
BOZEMAN        PTSUNNY   34  27  76 W8        29.97R WCI  27
DILLON         SUNNY     32  21  64 SW17      29.99R WCI  21
* W YELLOWSTON PTSUNNY   26  23  88 N/A        N/A
* THREE FORKS  PTCLDY    36  27  70 N/A        N/A
* TWIN BRIDGES PTCLDY    28  18  66 N/A        N/A
* BOULDER HILL N/A       32  12  43 NE2G14     N/A
* HOMESTAKE PS N/A       29  13  51 NW9G14     N/A   WCI  21
* MONIDA PASS  N/A       27  16  63 W14G20     N/A   WCI  16
* RAYNOLDS PAS N/A       23 -15  17 NE6        N/A   WCI  16
* WHITEHALL    N/A       35  17  48 E2         N/A
* WISE RIVER   N/A       29  15  56 W9         N/A   WCI  21
$$

MTZ009>010-012-014-046-048-049-054-011600-
EAST SLOPES AND CENTRAL MONTANA
CITY           SKY/WX    TMP DP  RH WIND       PRES   REMARKS
CUT BANK       SUNNY     37  18  46 W26G36    29.78S WCI  25
GREAT FALLS    SUNNY     43  12  28 W28G37    29.83R
HELENA         PTCLDY    39  18  43 W25G38    29.93F WCI  28
MALMSTROM AFB  PTCLDY    41  12  30 SW21G29   29.85R
* DEARBORN     N/A       40  14  35 S8G17      N/A   WCI  35
* EAST GLACIER N/A       30  19  64 SW8G16     N/A   WCI  22
* MONARCH      N/A       32  11  41 W21G29     N/A   WCI  20
* PENDROY      N/A       37  15  41 W25G32     N/A   WCI  25
* ROGERS PASS  N/A       29  14  53 E14G29     N/A   WCI  18
* SAINT MARY   N/A       32  20  61 SW10G21    N/A   WCI  24
* SWEET GRASS  N/A       32  32 100 S7         N/A   WCI  25
* WHITE SULPH  N/A       33  11  40 W11G20     N/A   WCI  24
$$

MTZ011-013-016-021-035-040-045-047-050-051-011600-
NORTH CENTRAL MONTANA
CITY           SKY/WX    TMP DP  RH WIND       PRES   REMARKS
HAVRE          LGT RAIN  37  34  89 W8        29.81R WCI  31
LEWISTOWN      CLOUDY    39  18  43 W21G30    29.82R WCI  29
* CHINOOK      PTSUNNY   39  30  70 W12       29.79S WCI  32
* FORT BENTON  PTCLDY    39  16  39 SW13      29.85R WCI  31
* DENTON       N/A       39  20  46 W20G26     N/A   WCI  29
* GEYSER       N/A       37  17  44 W29G42     N/A   WCI  25
* JUDITH GAP   N/A       35  16  46 W5         N/A   WCI  31
* LOMA         N/A       38  17  42 SW11       N/A   WCI  31
$$

MTZ017>020-022>027-061-062-011600-
NORTHEAST MONTANA
CITY           SKY/WX    TMP DP  RH WIND       PRES   REMARKS
GLASGOW        PTSUNNY   43  30  60 NW25G36   29.69R
GLENDIVE       PTCLDY    50  21  32 W36G56    29.65F
JORDAN         PTSUNNY   46  21  37 W22G33    29.74R
SIDNEY         PTSUNNY   48  27  44 W30G45    29.59F
WOLF POINT     PTSUNNY   48  30  50 W29G39    29.65R
* BEAVER HILL  N/A       47  24  40 W30G35     N/A
* CIRCLE       N/A       46  29  52 W22G38     N/A
* LINDSAY DVD  N/A       45  22  40 W38G45     N/A
* NAVAJO       N/A       40  34  79 W17G27     N/A   WCI  31
* PLENTYWOOD A PTCLDY    45  36  71 W24G31    29.56R
* POPLAR APT   PTSUNNY   46  30  54 W23       29.64S
* SACO         N/A       45  29  54 W21G32     N/A
$$

MTZ028>042-056>058-011600-
SOUTHCENTRAL AND SOUTHEAST MONTANA
CITY           SKY/WX    TMP DP  RH WIND       PRES   REMARKS
BAKER          PTCLDY    48  25  41 NW26G41   29.68R
BILLINGS       CLOUDY    45  19  35 W17       29.86S
LIVINGSTON     CLOUDY    37  25  62 W18       29.93R WCI  27
MILES CITY     LGT RAIN  50  25  38 W24G29    29.76S
* BIG TIMBER A PTSUNNY   37  19  48 SW23G31   29.90R WCI  26
* FORSYTH APT  PTSUNNY   46  19  34 W16G26    29.80R VSB 1 1/2
* LAUREL APT   CLOUDY    43  19  38 W14G28     N/A
* ALZADA       N/A       49  34  56 W17G22     N/A
* HYSHAM       N/A       41  26  55 W6         N/A
* LAME DEER    N/A       32  31  96 NW11G22    N/A   WCI  23
* REED POINT   N/A       41  24  51 W27G34     N/A
* ROSCOE HILL  N/A       38   4  24 W6G17      N/A   WCI  33
$$

REGIONAL REPORTS...DAKOTAS
CITY           SKY/WX    TMP DP  RH WIND       PRES   REMARKS
WILLISTON      PTSUNNY   48  34  59 W21       29.58R
DICKINSON      PTSUNNY   52  34  50 NW30G40   29.55R
BEACH          SUNNY     48  25  41 NW30G43   29.65R
CROSBY         SUNNY     48  36  63 W25G32    29.52R
TIOGA          SUNNY     46  37  71 W24G29    29.56R
WATFORD CITY   SUNNY     48  32  54 NW24G36   29.57R
BISMARCK       PTSUNNY   55  39  55 NW18G31   29.47R
GRAND FORKS    PTSUNNY   55  36  49 S22G28    29.38F
FARGO          PTSUNNY   59  36  42 S18G30    29.40F
BUFFALO SD     SUNNY     52  30  43 NW39G46   29.60R
RAPID CITY     PTCLDY    55  36  49 NW32G44   29.64R
$$

REGIONAL REPORTS...WYOMING/IDAHO/WASHINGTON
CITY           SKY/WX    TMP DP  RH WIND       PRES   REMARKS
GILLETTE       CLOUDY    46  32  58 NW17      29.78R
SHERIDAN       CLOUDY    43  25  49 NW23      29.85S
CODY           PTCLDY    37  25  62 N12G22    29.86R WCI  29
SALMON         PTSUNNY   36  25  64 CALM      30.06R
MULLAN PASS    CLOUDY    21  19  92 W8        29.97S WCI  11
SAND POINT     PTCLDY    36  28  73 SW5       30.08R WCI  32
SPOKANE        PTSUNNY   36  30  79 SW12      30.10R WCI  28
$$

REGIONAL REPORTS...ALBERTA
CITY           SKY/WX    TMP DP  RH WIND       PRES   REMARKS
CALGARY        PTSUNNY   39   7  26 W16G25    29.69F WCI  30
LETHBRIDGE     PTCLDY    37  27  67 W21G35    29.76S WCI  26
MEDICINE HAT   LGT RAIN  39  34  82 SW28      29.74R WCI  27
EDMONTON       LGT SNOW  32  30  92 W28G40    29.55S VSB 1    WCI  18
WATERTON GATE  N/A       36  14  40 W18G31     N/A   WCI  26
CARDSTON       N/A       37  19  48 W18G30     N/A   WCI  27
MILK RIVER     N/A       37  34  89 S7         N/A   WCI  32
$$

REGIONAL REPORTS...SASKATCHEWAN
CITY           SKY/WX    TMP DP  RH WIND       PRES   REMARKS
SWIFT CURRENT  PTSUNNY   39  25  57 W22G31    29.60S WCI  29
MOOSE JAW      PTSUNNY   41  36  82 NW26G32   29.55R
REGINA         PTSUNNY   43  37  79 NW22      29.51S
VAL MARIE      N/A       43  28  56 NW22G29    N/A
ASSINIBOIA     N/A       39  34  82 W23G32     N/A   WCI  28
CORONACH       N/A       41  34  76 W26G33     N/A

$$



USA.gov is the U.S. government's official web portal to all federal, state and local government web resources and services.